N5077J KCVG-KGEZ

Flight info

Callsign N5077J
Flight time 0h 39m
Altitude 8000
Route TARNE
Aircraft C310/L-VGD/C

Departure

Time 2026-04-16 03:00
Airport Cincinnati Northern Kentucky International Airport (KCVG)

Arrival

Time 2026-04-16 03:39
Airport Shelbyville Municipal Airport (KGEZ)
Time Latitude Longitude Altitude Speed Heading
2026-04-16 02:42 39.04357 -84.65655 874 ft 0 kts 269°
2026-04-16 02:54 39.04371 -84.65675 874 ft 6 kts 352°
2026-04-16 02:54 39.04378 -84.65676 874 ft 0 kts 357°
2026-04-16 02:56 39.04382 -84.65677 874 ft 4 kts 335°
2026-04-16 02:56 39.04445 -84.65701 874 ft 14 kts 24°
2026-04-16 02:56 39.04461 -84.65568 874 ft 18 kts 90°
2026-04-16 02:56 39.04461 -84.65395 874 ft 19 kts 90°
2026-04-16 02:57 39.04502 -84.65301 875 ft 8 kts
2026-04-16 02:57 39.04517 -84.65301 875 ft 0 kts
2026-04-16 02:58 39.04572 -84.65300 877 ft 19 kts
2026-04-16 02:59 39.04626 -84.65357 878 ft 9 kts 270°
2026-04-16 02:59 39.04625 -84.65609 876 ft 59 kts 270°
2026-04-16 02:59 39.04629 -84.66369 912 ft 103 kts 269°
2026-04-16 02:59 39.04672 -84.67318 1226 ft 105 kts 272°
2026-04-16 03:00 39.04667 -84.68236 1549 ft 100 kts 255°
2026-04-16 03:00 39.04647 -84.69117 1835 ft 97 kts 259°
2026-04-16 03:00 39.04698 -84.69975 2123 ft 95 kts 260°
2026-04-16 03:00 39.04837 -84.70808 2419 ft 101 kts 277°
2026-04-16 03:01 39.05191 -84.71627 2634 ft 109 kts 287°
2026-04-16 03:01 39.05629 -84.72434 2925 ft 110 kts 290°
2026-04-16 03:01 39.06078 -84.73235 3199 ft 110 kts 290°
2026-04-16 03:01 39.06519 -84.74043 3484 ft 110 kts 290°
2026-04-16 03:02 39.06954 -84.74856 3764 ft 110 kts 290°
2026-04-16 03:02 39.07383 -84.75669 4056 ft 109 kts 290°
2026-04-16 03:02 39.07806 -84.76472 4325 ft 108 kts 290°
2026-04-16 03:02 39.08224 -84.77276 4584 ft 108 kts 290°
2026-04-16 03:03 39.08642 -84.78083 4855 ft 109 kts 290°
2026-04-16 03:03 39.09063 -84.78893 5118 ft 109 kts 291°
2026-04-16 03:03 39.09485 -84.79705 5398 ft 109 kts 292°
2026-04-16 03:03 39.09905 -84.80514 5674 ft 109 kts 292°
2026-04-16 03:04 39.10324 -84.81324 5967 ft 109 kts 292°
2026-04-16 03:04 39.10747 -84.82142 6242 ft 110 kts 292°
2026-04-16 03:04 39.11174 -84.82965 6508 ft 111 kts 293°
2026-04-16 03:04 39.11602 -84.83791 6773 ft 111 kts 292°
2026-04-16 03:05 39.12030 -84.84614 7018 ft 110 kts 292°
2026-04-16 03:05 39.12456 -84.85436 7268 ft 111 kts 292°
2026-04-16 03:05 39.12888 -84.86271 7470 ft 114 kts 292°
2026-04-16 03:05 39.13332 -84.87130 7669 ft 117 kts 292°
2026-04-16 03:06 39.13786 -84.88012 7867 ft 119 kts 292°
2026-04-16 03:06 39.14252 -84.88908 8034 ft 123 kts 292°
2026-04-16 03:06 39.15280 -84.90902 8062 ft 142 kts 294°
2026-04-16 03:07 39.15838 -84.91984 8067 ft 149 kts 295°
2026-04-16 03:07 39.16421 -84.93111 8051 ft 153 kts 295°
2026-04-16 03:07 39.17018 -84.94263 8053 ft 156 kts 294°
2026-04-16 03:07 39.17628 -84.95435 8056 ft 159 kts 295°
2026-04-16 03:08 39.18251 -84.96634 8058 ft 162 kts 296°
2026-04-16 03:08 39.18884 -84.97853 8046 ft 165 kts 296°
2026-04-16 03:08 39.19525 -84.99088 8046 ft 167 kts 296°
2026-04-16 03:08 39.20170 -85.00334 8038 ft 168 kts 295°
2026-04-16 03:09 39.20818 -85.01590 8042 ft 169 kts 296°
2026-04-16 03:09 39.21469 -85.02851 8038 ft 169 kts 295°
2026-04-16 03:09 39.22122 -85.04112 8038 ft 169 kts 296°
2026-04-16 03:09 39.22774 -85.05376 8049 ft 170 kts 295°
2026-04-16 03:10 39.23430 -85.06648 8046 ft 170 kts 295°
2026-04-16 03:10 39.24087 -85.07923 8044 ft 171 kts 295°
2026-04-16 03:10 39.24746 -85.09202 8042 ft 171 kts 295°
2026-04-16 03:10 39.25406 -85.10482 8050 ft 171 kts 295°
2026-04-16 03:11 39.26066 -85.11764 8046 ft 172 kts 295°
2026-04-16 03:11 39.26726 -85.13046 8042 ft 172 kts 295°
2026-04-16 03:11 39.27387 -85.14329 8041 ft 171 kts 294°
2026-04-16 03:11 39.28046 -85.15611 8040 ft 171 kts 294°
2026-04-16 03:12 39.28697 -85.16876 8039 ft 171 kts 294°
2026-04-16 03:12 39.29355 -85.18157 8038 ft 171 kts 294°
2026-04-16 03:12 39.30012 -85.19436 8035 ft 171 kts 294°
2026-04-16 03:12 39.30666 -85.20709 8037 ft 170 kts 294°
2026-04-16 03:13 39.31320 -85.21982 8038 ft 170 kts 294°
2026-04-16 03:13 39.31970 -85.23251 8039 ft 169 kts 294°
2026-04-16 03:13 39.32620 -85.24520 8039 ft 169 kts 295°
2026-04-16 03:13 39.33268 -85.25785 8038 ft 169 kts 294°
2026-04-16 03:14 39.33916 -85.27048 8040 ft 169 kts 294°
2026-04-16 03:14 39.34565 -85.28315 8042 ft 169 kts 294°
2026-04-16 03:14 39.35212 -85.29579 8038 ft 168 kts 295°
2026-04-16 03:14 39.35858 -85.30840 8040 ft 168 kts 294°
2026-04-16 03:15 39.36504 -85.32104 8037 ft 169 kts 294°
2026-04-16 03:15 39.37149 -85.33368 8032 ft 168 kts 294°
2026-04-16 03:15 39.37576 -85.34203 8032 ft 168 kts 294°
2026-04-16 03:15 39.38222 -85.35465 8033 ft 168 kts 294°
2026-04-16 03:16 39.38864 -85.36722 8035 ft 168 kts 294°
2026-04-16 03:16 39.39507 -85.37980 8035 ft 168 kts 294°
2026-04-16 03:16 39.40148 -85.39236 8032 ft 167 kts 294°
2026-04-16 03:16 39.40789 -85.40492 8032 ft 167 kts 294°
2026-04-16 03:17 39.41431 -85.41750 8031 ft 168 kts 294°
2026-04-16 03:17 39.42074 -85.43013 8029 ft 168 kts 294°
2026-04-16 03:17 39.42720 -85.44283 8026 ft 170 kts 294°
2026-04-16 03:17 39.43363 -85.45544 8024 ft 170 kts 294°
2026-04-16 03:18 39.44016 -85.46827 8022 ft 171 kts 294°
2026-04-16 03:18 39.44679 -85.48130 8020 ft 171 kts 294°
2026-04-16 03:18 39.45336 -85.49419 8019 ft 172 kts 294°
2026-04-16 03:18 39.45987 -85.50712 8017 ft 171 kts 292°
2026-04-16 03:19 39.46555 -85.52030 8014 ft 169 kts 289°
2026-04-16 03:19 39.47095 -85.53380 8012 ft 169 kts 288°
2026-04-16 03:19 39.47637 -85.54729 8010 ft 169 kts 289°
2026-04-16 03:19 39.48194 -85.56104 7890 ft 175 kts 289°
2026-04-16 03:20 39.48949 -85.57393 7764 ft 192 kts 316°
2026-04-16 03:20 39.50166 -85.58188 7661 ft 198 kts 328°
2026-04-16 03:20 39.51452 -85.58833 7538 ft 198 kts 330°
2026-04-16 03:20 39.52754 -85.59434 7415 ft 199 kts 332°
2026-04-16 03:21 39.54033 -85.60085 7289 ft 195 kts 323°
2026-04-16 03:21 39.55195 -85.60946 7168 ft 192 kts 319°
2026-04-16 03:21 39.56328 -85.61862 7051 ft 192 kts 318°
2026-04-16 03:21 39.57463 -85.62773 6931 ft 192 kts 319°
2026-04-16 03:22 39.58607 -85.63673 6810 ft 193 kts 319°
2026-04-16 03:22 39.59767 -85.64574 6633 ft 195 kts 320°
2026-04-16 03:22 39.60931 -85.65468 6458 ft 194 kts 320°
2026-04-16 03:22 39.62080 -85.66346 6338 ft 190 kts 320°
2026-04-16 03:23 39.63215 -85.67213 6223 ft 187 kts 319°
2026-04-16 03:23 39.64324 -85.68060 6154 ft 184 kts 319°
2026-04-16 03:23 39.65427 -85.68912 6084 ft 185 kts 319°
2026-04-16 03:23 39.66539 -85.69770 5989 ft 187 kts 319°
2026-04-16 03:24 39.67642 -85.70619 5859 ft 187 kts 320°
2026-04-16 03:24 39.68771 -85.71483 5732 ft 186 kts 319°
2026-04-16 03:24 39.69872 -85.72326 5561 ft 185 kts 320°
2026-04-16 03:24 39.70977 -85.73171 5389 ft 184 kts 319°
2026-04-16 03:25 39.72076 -85.74015 5213 ft 183 kts 319°
2026-04-16 03:25 39.73172 -85.74858 5057 ft 183 kts 317°
2026-04-16 03:25 39.74263 -85.75697 4926 ft 181 kts 317°
2026-04-16 03:25 39.75343 -85.76525 4814 ft 179 kts 317°
2026-04-16 03:26 39.76407 -85.77343 4696 ft 177 kts 317°
2026-04-16 03:26 39.77461 -85.78152 4574 ft 174 kts 317°
2026-04-16 03:26 39.78497 -85.78932 4439 ft 173 kts 319°
2026-04-16 03:26 39.79585 -85.79657 4353 ft 176 kts 321°
2026-04-16 03:27 39.80691 -85.80360 4281 ft 177 kts 322°
2026-04-16 03:27 39.81799 -85.81066 4189 ft 177 kts 322°
2026-04-16 03:27 39.82891 -85.81764 4072 ft 173 kts 322°
2026-04-16 03:27 39.83963 -85.82458 3948 ft 171 kts 322°
2026-04-16 03:28 39.85019 -85.83145 3815 ft 168 kts 321°
2026-04-16 03:28 39.86144 -85.83639 3683 ft 179 kts 344°
2026-04-16 03:28 39.87386 -85.83358 3561 ft 191 kts 21°
2026-04-16 03:28 39.88369 -85.82208 3448 ft 192 kts 62°
2026-04-16 03:29 39.88719 -85.80599 3333 ft 180 kts 99°
2026-04-16 03:29 39.88433 -85.79121 3261 ft 160 kts 131°
2026-04-16 03:29 39.87756 -85.78095 3188 ft 142 kts 156°
2026-04-16 03:29 39.86914 -85.77572 3116 ft 128 kts 177°
2026-04-16 03:30 39.86064 -85.77494 3054 ft 119 kts 193°
2026-04-16 03:30 39.85245 -85.77597 3028 ft 118 kts 193°
2026-04-16 03:30 39.84419 -85.77690 3025 ft 120 kts 195°
2026-04-16 03:30 39.83586 -85.77785 3010 ft 120 kts 194°
2026-04-16 03:31 39.82757 -85.77877 3007 ft 119 kts 195°
2026-04-16 03:31 39.81937 -85.77968 3008 ft 118 kts 194°
2026-04-16 03:31 39.81120 -85.78061 3018 ft 118 kts 193°
2026-04-16 03:31 39.80293 -85.78157 3026 ft 120 kts 194°
2026-04-16 03:32 39.79450 -85.78255 3021 ft 122 kts 193°
2026-04-16 03:32 39.78601 -85.78352 3017 ft 123 kts 193°
2026-04-16 03:34 39.72754 -85.78949 2725 ft 108 kts 193°
2026-04-16 03:34 39.72010 -85.79029 2688 ft 106 kts 193°
2026-04-16 03:34 39.71275 -85.79105 2669 ft 106 kts 195°
2026-04-16 03:34 39.70541 -85.79181 2649 ft 105 kts 195°
2026-04-16 03:35 39.69820 -85.79251 2611 ft 101 kts 195°
2026-04-16 03:35 39.69162 -85.79308 2565 ft 92 kts 197°
2026-04-16 03:35 39.68538 -85.79380 2524 ft 89 kts 197°
2026-04-16 03:35 39.67919 -85.79452 2417 ft 89 kts 195°
2026-04-16 03:36 39.67294 -85.79514 2312 ft 91 kts 194°
2026-04-16 03:36 39.66669 -85.79572 2196 ft 91 kts 195°
2026-04-16 03:36 39.66036 -85.79632 2092 ft 90 kts 195°
2026-04-16 03:36 39.65419 -85.79700 1947 ft 89 kts 195°
2026-04-16 03:37 39.64785 -85.79761 1805 ft 93 kts 193°
2026-04-16 03:37 39.64154 -85.79822 1706 ft 90 kts 192°
2026-04-16 03:37 39.63522 -85.79892 1618 ft 93 kts 190°
2026-04-16 03:37 39.62860 -85.79958 1544 ft 99 kts 188°
2026-04-16 03:38 39.62171 -85.80025 1413 ft 101 kts 187°
2026-04-16 03:38 39.61462 -85.80115 1275 ft 101 kts 185°
2026-04-16 03:38 39.60761 -85.80189 1133 ft 99 kts 186°
2026-04-16 03:38 39.60076 -85.80249 957 ft 98 kts 185°
2026-04-16 03:39 39.59408 -85.80320 846 ft 93 kts 184°
2026-04-16 03:39 39.58828 -85.80376 804 ft 72 kts 185°
2026-04-16 03:39 39.58391 -85.80423 807 ft 41 kts 185°
2026-04-16 03:39 39.58172 -85.80446 809 ft 27 kts 184°
2026-04-16 03:40 39.58017 -85.80467 812 ft 18 kts 203°
2026-04-16 03:40 39.57967 -85.80420 811 ft 10 kts 93°
2026-04-16 03:40 39.57968 -85.80315 810 ft 13 kts 88°
2026-04-16 03:40 39.57970 -85.80189 810 ft 15 kts 89°
2026-04-16 03:41 39.57948 -85.80127 810 ft 7 kts 174°
2026-04-16 03:41 39.57896 -85.80125 811 ft 8 kts 178°
2026-04-16 03:41 39.57827 -85.80124 810 ft 12 kts 179°
2026-04-16 03:41 39.57719 -85.80121 810 ft 17 kts 179°
2026-04-16 03:42 39.57690 -85.80053 811 ft 10 kts 30°
2026-04-16 03:42 39.57747 -85.80056 810 ft 9 kts 316°
2026-04-16 03:42 39.57823 -85.80073 810 ft 9 kts
2026-04-16 03:42 39.57834 -85.80052 811 ft 0 kts 79°